ロングモア彗星

77P/Longmore (1995)

English version
Home page
Updated on April 4, 2008

---------------------------------------------------------------------

・ プロフィール

・ 軌道要素

   The following improved orbital elements by Kenji Muraoka, 
  are from 107 observations 1975 to 1998, including 9 Planets,
  Moon and 5 minor planets perturbations and non-gravitational
  effect of style II.  The mean residual is +/- 0.75 arc seconds.

      Epoch  =  1995 Oct. 10.0  TT       JDT = 2450000.5
          T  =  1995 Oct.  9.31729       +/- 0.00183 (m.e.) TT
       Peri. =  195.79660                +/- 0.00038
       Node  =   15.65627                +/- 0.00008   (2000.0)
       Incl. =   24.40989                +/- 0.00003
          q  =    2.3989680              +/- 0.0000018 AU
          e  =    0.3430595              +/- 0.0000004
          a  =    3.6517281              +/- 0.0000009 AU
          n  =    0.14123958             +/- 0.00000005
          P  =    6.978                  +/- 0.0000026  years
         A1  =   +0.089                  +/- 0.098
         A2  =   -0.07111                +/- 0.00294

・ 星図

・ 1994年10月 5日〜1995年11月29日
・ 1995年 8月21日〜1996年 9月24日

・ 光度変化

        H = 14.0  G = 0.15               [    ,-450]  (              〜1994年 7月16日)
        m1 = 6.5 + 5 logΔ + 20.0 log r  [-450, 450]  (1994年 7月16日〜1997年 1月 1日)
        H = 14.0  G = 0.15               [ 450,    ]  (1997年 1月 1日〜              )

---------------------------------------------------------------------

軌道要素は村岡健治氏の計算によるものです。
星図は StellaNavigator Ver.2.0 for Windows (アストロアーツ 編著 / アスキー出版局刊) で作成したものです。
光度グラフはComet for Windowsで作成したものです。

---------------------------------------------------------------------

Copyright(C) Seiichi Yoshida (comet@aerith.net). All rights reserved.